Location: Goudex
(43.3760°N, 0.9543°E)
Time: 09:54:31
(UTC+00:00)

Envisat - Visible Passes

Search period start: 04 March 2021 00:00
Search period end: 14 March 2021 00:00
Orbit: 764 x 766 km, 98.1° (Epoch: 03 March)

Date Brightness Start Highest point End Pass type
(mag) Time Alt. Az. Time Alt. Az. Time Alt. Az.
04 Mar 5.9 04:25:53 10° NE 04:29:09 17° E 04:32:24 10° SE visible
05 Mar 3.6 05:26:43 10° NNE 05:31:47 63° E 05:36:48 10° S visible
05 Mar 6.8 18:25:56 10° W 18:26:59 11° W 18:28:03 10° WNW visible
06 Mar 5.1 04:50:23 10° NE 04:54:47 29° E 04:59:10 10° SSE visible
07 Mar 6.1 04:15:12 10° ENE 04:17:35 13° E 04:19:58 10° ESE visible
07 Mar 3.0 05:52:05 10° N 05:57:10 76° WNW 06:02:14 10° SSW visible
08 Mar 4.0 05:15:22 10° NNE 05:20:19 50° E 05:25:14 10° S visible
09 Mar 5.5 04:39:15 10° NE 04:43:16 23° E 04:47:15 10° SE visible
10 Mar 6.4 04:05:46 10° E 04:06:00 10° E 04:06:13 10° E visible
10 Mar 3.1 05:40:38 10° NNE 05:45:45 86° ESE 05:50:50 10° SSW visible
11 Mar 4.5 05:04:04 10° NNE 05:08:50 39° E 05:13:34 10° SSE visible
12 Mar 5.8 04:28:14 10° NE 04:31:44 18° E 04:35:12 10° SE visible
13 Mar 3.4 05:29:14 10° NNE 05:34:19 69° ESE 05:39:22 10° S visible
